TimeCDT,TemperatureF,Dew PointF,Humidity,Sea Level PressureIn,VisibilityMPH,Wind Direction,Wind SpeedMPH,Gust SpeedMPH,PrecipitationIn,Events,Conditions,WindDirDegrees,DateUTC
12:55 AM,55.0,51.1,86,29.96,10.0,South,6.9,-,N/A,,Clear,180,2013-10-11 05:55:00
1:55 AM,57.0,53.1,87,29.96,10.0,South,8.1,-,N/A,,Clear,180,2013-10-11 06:55:00
2:55 AM,57.0,53.1,87,29.96,10.0,South,6.9,-,N/A,,Clear,180,2013-10-11 07:55:00
3:55 AM,55.0,53.1,93,29.95,10.0,SSE,8.1,-,N/A,,Clear,150,2013-10-11 08:55:00
4:55 AM,53.1,52.0,96,29.95,8.0,SE,4.6,-,N/A,,Clear,130,2013-10-11 09:55:00
5:55 AM,52.0,51.1,97,29.96,4.0,SE,5.8,-,N/A,,Clear,140,2013-10-11 10:55:00
6:08 AM,51.8,50.0,94,29.96,1.5,Calm,Calm,-,N/A,,Clear,0,2013-10-11 11:08:00
6:13 AM,51.8,50.0,94,29.97,0.5,South,3.5,-,N/A,Fog,Fog,180,2013-10-11 11:13:00
6:29 AM,50.0,48.2,94,29.97,1.0,SSE,5.8,-,N/A,,Clear,150,2013-10-11 11:29:00
6:40 AM,51.8,51.8,100,29.97,3.0,SE,5.8,-,N/A,,Clear,140,2013-10-11 11:40:00
6:48 AM,50.0,50.0,100,29.96,2.5,SE,5.8,-,N/A,,Clear,140,2013-10-11 11:48:00
6:55 AM,51.1,51.1,100,29.97,2.5,SE,6.9,-,N/A,,Clear,130,2013-10-11 11:55:00
7:05 AM,51.8,51.8,100,29.96,3.0,SE,5.8,-,N/A,,Clear,130,2013-10-11 12:05:00
7:17 AM,51.8,51.8,100,29.96,2.0,SE,5.8,-,N/A,,Clear,130,2013-10-11 12:17:00
7:24 AM,51.8,51.8,100,29.96,1.5,SSE,5.8,-,N/A,,Clear,150,2013-10-11 12:24:00
7:55 AM,53.1,53.1,100,29.97,1.8,SE,6.9,-,N/A,,Clear,140,2013-10-11 12:55:00
8:11 AM,53.6,53.6,100,29.96,2.0,SE,6.9,-,N/A,,Clear,140,2013-10-11 13:11:00
8:25 AM,55.4,55.4,100,29.96,2.5,SSE,8.1,-,N/A,,Partly Cloudy,150,2013-10-11 13:25:00
8:33 AM,57.2,55.4,94,29.96,3.0,SSE,11.5,-,N/A,,Partly Cloudy,160,2013-10-11 13:33:00
8:55 AM,57.9,55.9,93,29.97,5.0,South,9.2,-,N/A,,Clear,170,2013-10-11 13:55:00
9:55 AM,64.0,57.9,80,29.95,10.0,SSE,15.0,-,N/A,,Clear,160,2013-10-11 14:55:00
10:55 AM,70.0,57.0,63,29.93,10.0,SSE,18.4,23.0,N/A,,Clear,150,2013-10-11 15:55:00
11:55 AM,73.9,59.0,59,29.91,10.0,SSE,18.4,-,N/A,,Clear,160,2013-10-11 16:55:00
12:55 PM,75.0,59.0,57,29.88,10.0,SSE,19.6,25.3,N/A,,Partly Cloudy,160,2013-10-11 17:55:00
1:55 PM,75.9,59.0,56,29.86,10.0,South,18.4,26.5,N/A,,Mostly Cloudy,170,2013-10-11 18:55:00
2:55 PM,78.1,60.1,54,29.83,10.0,SSE,21.9,27.6,N/A,,Mostly Cloudy,150,2013-10-11 19:55:00
3:55 PM,77.0,59.0,54,29.84,10.0,SSE,20.7,26.5,N/A,,Partly Cloudy,150,2013-10-11 20:55:00
4:55 PM,77.0,60.1,56,29.84,10.0,South,17.3,23.0,N/A,,Overcast,170,2013-10-11 21:55:00
5:55 PM,75.0,60.1,60,29.85,10.0,South,12.7,-,N/A,,Overcast,170,2013-10-11 22:55:00
6:55 PM,73.0,60.1,64,29.86,10.0,SSE,9.2,-,N/A,,Overcast,160,2013-10-11 23:55:00
7:55 PM,72.0,60.1,66,29.87,10.0,SSE,8.1,-,N/A,,Overcast,160,2013-10-12 00:55:00
8:55 PM,72.0,60.1,66,29.86,10.0,SSE,11.5,-,N/A,,Overcast,160,2013-10-12 01:55:00
9:55 PM,71.1,60.1,68,29.86,10.0,SSE,13.8,-,N/A,,Mostly Cloudy,160,2013-10-12 02:55:00
10:55 PM,70.0,60.1,71,29.87,10.0,South,8.1,-,N/A,,Overcast,180,2013-10-12 03:55:00
11:55 PM,66.9,60.1,79,29.87,10.0,South,8.1,-,N/A,,Scattered Clouds,170,2013-10-12 04:55:00